ASIASAT 7

Last updated on Mon Jun 22 2026 00:03:04 GMT+0000 (Coordinated Universal Time)

1 37933U 11069A 26172.16642169 -.00000336 00000+0 00000+0 0 9996 2 37933 0.0432 87.0342 0001326 342.3575 5.3960 1.00270218 44890
UTC large
Height (km)
Speed (km/s)
/
Latitude / Longitude
Inclination (degrees)
Orbital Period (minutes)
Azimuth
Elevation
Range (km)
Doppler Factor

Next 0 passes for location: London (51.5072 / 0.1276)

No passes found over London.
ASIASAT 7